Location: Bílinka
(49.3579°N, 14.3767°E)
Time: 07:01:54
(UTC+00:00)

PSLV R/B - Pass Details

Date: 22 April 2024
Orbit: 467 x 522 km, 97.7° (Epoch: 20 May)

Event Time Altitude Azimuth Distance (km) Brightness Sun altitude
Exits shadow 19:11:58 - 178° (S) 2,568 6.9 -10.3°
Reaches altitude 10° 19:13:58 10° 184° (S) 1,740 6.1 -10.6°
Maximum altitude 19:17:37 49° 260° (W) 684 4.6 -11.1°
Drops below altitude 10° 19:21:22 10° 336° (NNW) 1,781 7.4 -11.6°
Sets 19:23:33 0° 342° (NNW) 2,680 8.3 -11.9°
